Weather History for Altus AFB, OK

Change the Weather History Date:

Friday, May 16, 2014

  Actual Average Record
Temperature  
Mean Temperature 70 °F -  
Max Temperature 89 °F 82 °F 96 °F (2000)
Min Temperature 52 °F 58 °F 46 °F (2011)
Cooling Degree Days 6    
Growing Degree Days 20 (Base 50)    
Moisture  
Dew Point 41 °F    
Average Humidity 46    
Maximum Humidity 73    
Minimum Humidity 12    
Precipitation  
Precipitation 0.00 in - - ()
Sea Level Pressure  
Sea Level Pressure 29.99 in    
Wind  
Wind Speed 9 mph (ESE)    
Max Wind Speed 34 mph    
Max Gust Speed 43 mph    
Visibility 9 miles    
Events      
Averages and records for this station are not official NWS values.
T = Trace of Precipitation, MM = Missing Value Source: NWS Daily Summary

Daily Weather History Graph

Daily Weather History Graph

Search for Another Location

Airport:

Trip Planner

Search our weather history database for the weather conditions in past years. The results will help you decide how hot, cold, wet, or windy it might be!

Date:

Astronomy

May. 16, 2014 Rise Set
Actual Time 6:33 AM CDT 8:33 PM CDT
Civil Twilight 6:05 AM CDT 9:01 PM CDT
Nautical Twilight 5:31 AM CDT 9:36 PM CDT
Astronomical Twilight 4:55 AM CDT 10:12 PM CDT
Moon 10:42 PM CDT (5/16) 8:16 AM CDT (5/16)
Length of Visible Light 14h 56m
Length of Day
14h 00m
Waning Gibbous, 95% of the Moon is Illuminated
May 16
Waning Gibbous
May 21
Last Quarter
May 28
New
Jun 5
First Quarter
Jun 12
Full

Hourly Weather History & Observations

Time (CDT) Temp. Dew Point Humidity Pressure Visibility Wind Dir Wind Speed Gust Speed Precip Events Conditions
12:58 AM 53.2 °F 39.9 °F 61% 30.11 in 10.0 mi ENE 5.8 mph - N/A   Scattered Clouds
1:43 AM 53.6 °F 41.0 °F 62% 30.14 in 2.5 mi ENE 6.9 mph - N/A   Haze
1:53 AM 53.6 °F 41.0 °F 62% 30.13 in 10.0 mi NE 6.9 mph - N/A   Overcast
1:58 AM 54.1 °F 41.0 °F 61% 30.11 in 10.0 mi ENE 8.1 mph - N/A   Overcast
2:58 AM 56.3 °F 41.7 °F 58% 30.10 in 10.0 mi East 3.5 mph - N/A   Scattered Clouds
3:58 AM 53.1 °F 42.6 °F 68% 30.10 in 10.0 mi ESE 3.5 mph - N/A   Mostly Cloudy
4:58 AM 52.9 °F 43.5 °F 71% 30.09 in 10.0 mi SSE 8.1 mph - N/A   Overcast
5:48 AM 53.6 °F 44.6 °F 72% 30.12 in 9.0 mi East 5.8 mph - N/A   Mostly Cloudy
5:53 AM 53.6 °F 44.6 °F 72% 30.10 in 10.0 mi East 6.9 mph - N/A   Mostly Cloudy
5:58 AM 53.2 °F 44.6 °F 72% 30.08 in 10.0 mi East 6.9 mph - N/A   Scattered Clouds
6:58 AM 52.7 °F 44.4 °F 73% 30.09 in 10.0 mi East 5.8 mph - N/A   Mostly Cloudy
7:43 AM 55.4 °F 44.6 °F 67% 30.11 in 2.0 mi East 9.2 mph - N/A   Haze
7:48 AM 55.4 °F 44.6 °F 67% 30.11 in 1.5 mi East 11.5 mph - N/A   Haze
7:58 AM 57.2 °F 44.6 °F 63% 30.09 in 10.0 mi ESE 10.4 mph - N/A   Mostly Cloudy
8:58 AM 61.3 °F 44.2 °F 53% 30.09 in 10.0 mi ESE 12.7 mph - N/A   Partly Cloudy
9:58 AM 65.8 °F 43.2 °F 44% 30.07 in 10.0 mi SSE 15.0 mph 21.9 mph N/A   Clear
10:58 AM 70.0 °F 43.0 °F 38% 30.05 in 10.0 mi SE 16.1 mph - N/A   Clear
11:58 AM 73.8 °F 42.6 °F 33% 30.02 in 10.0 mi SE 15.0 mph - N/A   Clear
12:58 PM 77.4 °F 41.0 °F 27% 29.99 in 10.0 mi SE 13.8 mph 20.7 mph N/A   Clear
1:58 PM 81.1 °F 40.1 °F 23% 29.94 in 10.0 mi SE 15.0 mph 21.9 mph N/A   Partly Cloudy
2:21 PM 82.4 °F 39.2 °F 21% 29.96 in 10.0 mi South 15.0 mph 20.7 mph N/A   Partly Cloudy
2:58 PM 83.1 °F 37.8 °F 20% 29.91 in 10.0 mi SSE 12.7 mph 18.4 mph N/A   Partly Cloudy
3:58 PM 85.1 °F 36.5 °F 18% 29.88 in 10.0 mi South 11.5 mph - N/A   Clear
4:58 PM 87.4 °F 35.1 °F 16% 29.84 in 10.0 mi SSE 10.4 mph - N/A   Clear
5:58 PM 89.4 °F 29.8 °F 12% 29.81 in 10.0 mi SSW 8.1 mph - N/A   Clear
6:58 PM 88.3 °F 28.6 °F 12% 29.80 in 10.0 mi SSW 8.1 mph - N/A   Clear
7:58 PM 82.6 °F 31.6 °F 16% 29.77 in 10.0 mi SE 8.1 mph - N/A   Clear
8:58 PM 74.5 °F 33.8 °F 23% 29.78 in 10.0 mi ESE 8.1 mph - N/A   Partly Cloudy
9:58 PM 73.6 °F 47.5 °F 39% 29.78 in 10.0 mi ESE 13.8 mph - N/A   Partly Cloudy
10:58 PM 69.4 °F 49.3 °F 49% 29.79 in 10.0 mi East 9.2 mph - N/A   Clear
11:53 PM 68.0 °F 50.0 °F 52% 29.86 in 10.0 mi NNE 34.5 mph 42.6 mph N/A   Mostly Cloudy
11:58 PM 68.5 °F 49.5 °F 50% 29.85 in 10.0 mi NNE 26.5 mph 42.6 mph N/A   Mostly Cloudy